Weather History for Mazatlan Airport, Mexico

Change the Weather History Date:

Wednesday, June 26, 2013

  Actual Average Record
Temperature  
Mean Temperature 78 °F -  
Max Temperature 86 °F 89 °F 96 °F (2008)
Min Temperature 71 °F 75 °F 71 °F (2013)
Cooling Degree Days 14    
Growing Degree Days 28 (Base 50)    
Moisture  
Dew Point 65 °F    
Average Humidity 65    
Maximum Humidity 78    
Minimum Humidity 52    
Precipitation  
Precipitation 0.31 in - - ()
Sea Level Pressure  
Sea Level Pressure 29.95 in    
Wind  
Wind Speed 7 mph ()    
Max Wind Speed 12 mph    
Max Gust Speed -    
Visibility 11.5 miles    
Events Rain , Thunderstorm    
Averages and records for this station are not official NWS values.
T = Trace of Precipitation, MM = Missing Value Source: Averaged Metar Reports

Daily Weather History Graph

Daily Weather History Graph

Search for Another Location

Airport:

Trip Planner

Search our weather history database for the weather conditions in past years. The results will help you decide how hot, cold, wet, or windy it might be!

Date:

Astronomy

Jun. 26, 2013 Rise Set
Actual Time 6:21 AM MDT 7:54 PM MDT
Civil Twilight 5:56 AM MDT 8:19 PM MDT
Nautical Twilight 5:25 AM MDT 8:50 PM MDT
Astronomical Twilight 4:54 AM MDT 9:21 PM MDT
Moon 10:49 PM MDT (6/26) 9:50 AM MDT (6/26)
Length of Visible Light 14h 23m
Length of Day
13h 33m
Waning Gibbous, 85% of the Moon is Illuminated
Jun 26
Waning Gibbous
Jun 29
Last Quarter
Jul 8
New
Jul 15
First Quarter
Jul 22
Full

Hourly Weather History & Observations

Time (MDT) Temp. Heat Index Dew Point Humidity Pressure Visibility Wind Dir Wind Speed Gust Speed Precip Events Conditions
12:41 AM 75.2 °F - 64.4 °F 69% 29.95 in 6.0 mi North 10.4 mph - N/A Rain Light Rain
1:40 AM 75.2 °F - 66.2 °F 73% 29.95 in 8.0 mi East 8.1 mph - N/A   Overcast
2:31 AM 73.4 °F - 64.4 °F 73% 29.95 in 5.0 mi SSE 10.4 mph - N/A Rain Rain
2:41 AM 73.4 °F - 64.4 °F 73% 29.95 in 6.0 mi SSE 9.2 mph - N/A Rain Rain
3:46 AM 71.6 °F - 62.6 °F 73% 29.96 in 6.0 mi SE 5.8 mph - N/A Rain , Thunderstorm Thunderstorms and Rain
4:42 AM 71.6 °F - 62.6 °F 73% 29.98 in 6.0 mi NE 9.2 mph - N/A Rain , Thunderstorm Light Thunderstorms and Rain
5:53 AM 71.6 °F - 60.8 °F 69% 29.98 in 7.0 mi NNW 8.1 mph - N/A Rain , Thunderstorm Thunderstorms and Rain
6:43 AM 71.6 °F - 60.8 °F 69% 29.96 in 10.0 mi North 11.5 mph - N/A Rain Light Rain
7:26 AM 71.6 °F - 64.4 °F 78% 29.96 in 14.0 mi NNE 9.2 mph - N/A   Overcast
7:46 AM 71.6 °F - 64.4 °F 78% 29.96 in 15.0 mi North 10.4 mph - N/A   Overcast
8:46 AM 73.4 °F - 62.6 °F 69% 29.95 in 15.0 mi NNW 8.1 mph - N/A   Overcast
9:43 AM 75.2 °F - 64.4 °F 69% 29.96 in 15.0 mi NNW 6.9 mph - N/A   Overcast
10:51 AM 77.0 °F - 64.4 °F 65% 29.95 in 15.0 mi West 5.8 mph - N/A   Overcast
11:46 AM 80.6 °F 82.3 °F 64.4 °F 58% 29.95 in 15.0 mi SW 6.9 mph - N/A   Overcast
12:00 PM 86 °F - 71 °F 52% 29.97 in - SSW 4.5 mph - -  
12:42 PM 80.6 °F 82.3 °F 64.4 °F 58% 29.96 in 15.0 mi South 6.9 mph - N/A   Overcast
1:47 PM 82.4 °F 83.9 °F 64.4 °F 54% 29.96 in 15.0 mi South 8.1 mph - N/A   Overcast
2:44 PM 82.4 °F 83.9 °F 64.4 °F 54% 29.94 in 15.0 mi South 8.1 mph - N/A   Overcast
3:00 PM 85 °F - 73 °F 60% 29.96 in - SW 4.5 mph - -  
3:40 PM 82.4 °F 83.9 °F 64.4 °F 54% 29.93 in 15.0 mi SW 9.2 mph - N/A   Overcast
4:43 PM 80.6 °F 82.3 °F 64.4 °F 58% 29.92 in 15.0 mi WSW 10.4 mph - N/A   Overcast
5:45 PM 80.6 °F 82.3 °F 64.4 °F 58% 29.91 in 15.0 mi WSW 8.1 mph - N/A   Overcast
6:00 PM 83 °F - 74 °F 67% 29.93 in - SW 4.5 mph - -  
6:41 PM 80.6 °F 81.8 °F 62.6 °F 54% 29.93 in 15.0 mi SW 8.1 mph - N/A   Overcast
7:43 PM 78.8 °F - 64.4 °F 61% 29.93 in 12.0 mi WSW 6.9 mph - N/A   Overcast
8:47 PM 78.8 °F - 64.4 °F 61% 29.94 in 10.0 mi WSW 6.9 mph - N/A   Overcast
9:00 PM 82 °F - 74 °F 71% 29.95 in - WSW 4.5 mph - -  
9:41 PM 78.8 °F - 66.2 °F 65% 29.96 in 10.0 mi West 8.1 mph - N/A   Overcast
10:40 PM 78.8 °F - 66.2 °F 65% 29.97 in 10.0 mi North 6.9 mph - N/A   Overcast
11:45 PM 78.8 °F - 66.2 °F 65% 29.99 in 10.0 mi NNW 5.8 mph - N/A   Overcast